Regional Weather Roundup
Issued by NWS

Home | Current Version | Previous Version | Graphics & Text | Print | Product List | Glossary On
Versions: 1 2 3 4 5 6 7 8 9 10 11 12 13 14 15 16 17 18 19 20 21 22 23 24 25 26 27 28 29 30 31 32 33 34 35 36 37 38 39 40 41 42 43 44 45 46 47 48 49 50
000
ASUS45 KABQ 200401
RWRNM
NEW MEXICO REGIONAL WEATHER ROUNDUP
NATIONAL WEATHER SERVICE ALBUQUERQUE NM
1000 PM MDT TUE SEP 19 2017

NOTE: "FAIR" MEANS FEW OR NO CLOUDS BELOW 12,000 FEET AGL WITH NO
       SIGNIFICANT WEATHER OR OBSTRUCTIONS TO VISION.

      THIS PRODUCT IS RELEASED AS TWO VERSIONS.  ONE VERSION NEAR
      THE TOP OF THE HOUR CONTAINING PRELIMINARY DATA FROM ALBUQUERQUE
      AND OTHER STATIONS.  A FINAL VERSION WITH ADDITIONAL DATA IS
      ISSUED ABOUT 10 MINUTES AFTER THE HOUR.

NMZ501-503-504-510>518-200500-
NORTHWEST PLATEAU/NORTHCENTRAL MOUNTAINS

CITY           SKY/WX    TMP DP  RH WIND       PRES   REMARKS
FARMINGTON     FAIR      69  18  14 SW8       29.93R
LOS ALAMOS     FAIR      68  18  14 W15G22    30.07S
SANTA FE       FAIR      67  22  18 MISG      30.01R
TAOS           FAIR      61  16  17 W16       30.06R
ANGEL FIRE     FAIR      60  15  17 W22G29    30.11S

$$
NMZ402-403-502-505>509-200500-
WESTCENTRAL MOUNTAINS/SOUTHWEST MOUNTAINS

CITY           SKY/WX    TMP DP  RH WIND       PRES   REMARKS
GALLUP         FAIR     N/A N/A N/A CALM      30.08R
GRANTS         FAIR      65  29  25 CALM      30.10R
SILVER CITY    FAIR      63  43  47 NW8       30.06S

$$
NMZ407-409-411-412-200500-
SOUTHERN DESERTS

CITY           SKY/WX    TMP DP  RH WIND       PRES   REMARKS
DEMING         FAIR      78  45  30 W12       29.97R
LAS CRUCES     FAIR      78  44  29 W10       29.98S
HOLLOMAN AFB   FAIR      75  41  28 SW9       29.93S
ALAMOGORDO     FAIR      70  39  32 S8        29.94R
T OR C         FAIR      77  41  27 W8        29.96R

$$
NMZ519>523-200500-
CENTRAL VALLEYS/CENTRAL HIGHLANDS

CITY           SKY/WX    TMP DP  RH WIND       PRES   REMARKS
ALBUQUERQUE    FAIR      74  26  16 W12       29.97R
DOUBLE EAGLE   CLEAR     68  37  32 W12       30.00S
CLINES CORNERS FAIR      62  19  19 W21       30.05R
BELEN          FAIR      75  31  19 W12       29.97R
SOCORRO        FAIR      77  33  19 W17G25    29.93S

$$
NMZ524>526-539-540-200500-
SOUTHCENTRAL MOUNTAINS

CITY           SKY/WX    TMP DP  RH WIND       PRES   REMARKS
RUIDOSO        FAIR      66  37  34 SW3       30.10S

$$
NMZ527>531-200500-
NORTHEAST HIGHLANDS/NORTHEAST PLAINS

CITY           SKY/WX    TMP DP  RH WIND       PRES   REMARKS
LAS VEGAS      FAIR      64  19  17 S6        30.00R
RATON          FAIR      64  19  17 S7        29.91R
CLAYTON        FAIR      68  29  23 SW8       29.84R

$$
NMZ532>537-200500-
EASTCENTRAL PLAINS

CITY           SKY/WX    TMP DP  RH WIND       PRES   REMARKS
SANTA ROSA     FAIR      70  32  24 S5        29.86R
TUCUMCARI      FAIR      71  35  26 W6        29.78R
CANNON AFB     CLEAR     67  44  43 SW6       29.87R
CLOVIS AIRPORT FAIR      65  45  48 SW8       29.86R

$$
NMZ028-029-538-200500-
SOUTHEAST PLAINS

CITY           SKY/WX    TMP DP  RH WIND       PRES   REMARKS
ROSWELL        FAIR      76  41  28 SW10      29.84R
ARTESIA        FAIR      77  45  31 SW10      29.86R
CARLSBAD       FAIR      75  49  39 SW8       29.85R
HOBBS          FAIR      72  46  40 SW7       29.89R


$$



USA.gov is the U.S. government's official web portal to all federal, state and local government web resources and services.